User: anonymous   Login
Location: Prairie State College
(41.5244°N, 87.6382°W)
Time: 00:50:15
(UTC-05:00)
Language:

ARGOS Delta rocket - Orbit

View from above orbital plane
View from above orbital plane
View from above satellite
View from above satellite

Ground track
Ground track

The orbit data is extracted from the following two-line orbital elements,

1 25637U 99008D   15090.21502124  .00000470  00000-0  12387-3 0  9996
2 25637 096.4782 169.8603 0142416 335.1441 075.7468 14.46219517848673
Epoch (UTC): 31 March 2015 05:09:37
Eccentricity: 0.0142416
inclination: 96.4782°
perigee height: 636 km
apogee height: 839 km
right ascension of ascending node: 169.8603°
argument of perigee: 335.1441°
revolutions per day: 14.46219517
mean anomaly at epoch: 75.7468°
orbit number at epoch: 84867

The dashed part of the orbit path shows where the satellite is in the earth's shadow,  

DLR